RPC915 RPVB-RPVB

Flight info

Callsign RPC915
Flight time 0h 16m
Altitude 3500
Route LOCAL VFR
Aircraft C172/L-V/N

Departure

Time 2026-04-22 15:28
Airport Bacolod-Silay International Airport (RPVB)

Arrival

Time 2026-04-22 15:44
Airport Bacolod-Silay International Airport (RPVB)
Time Latitude Longitude Altitude Speed Heading
2026-04-22 15:19 10.77344 123.01416 80 ft 0 kts 208°
2026-04-22 15:19 10.77345 123.01416 80 ft 0 kts 208°
2026-04-22 15:24 10.77316 123.01419 81 ft 12 kts 107°
2026-04-22 15:25 10.77380 123.01508 82 ft 21 kts 71°
2026-04-22 15:25 10.77321 123.01590 82 ft 13 kts 118°
2026-04-22 15:25 10.77259 123.01659 79 ft 15 kts 169°
2026-04-22 15:25 10.77156 123.01618 81 ft 17 kts 208°
2026-04-22 15:26 10.77043 123.01552 80 ft 20 kts 209°
2026-04-22 15:26 10.76936 123.01454 82 ft 21 kts 230°
2026-04-22 15:26 10.76915 123.01476 82 ft 1 kts 26°
2026-04-22 15:27 10.76950 123.01496 83 ft 24 kts 31°
2026-04-22 15:27 10.77224 123.01659 80 ft 65 kts 29°
2026-04-22 15:27 10.77657 123.01899 256 ft 70 kts 30°
2026-04-22 15:27 10.78071 123.02120 489 ft 66 kts 28°
2026-04-22 15:28 10.78495 123.02308 686 ft 67 kts 23°
2026-04-22 15:28 10.78906 123.02492 889 ft 62 kts 38°
2026-04-22 15:28 10.79013 123.02890 978 ft 65 kts 98°
2026-04-22 15:28 10.78774 123.03282 1156 ft 67 kts 140°
2026-04-22 15:29 10.78303 123.03225 1340 ft 76 kts 196°
2026-04-22 15:29 10.77815 123.03006 1517 ft 78 kts 208°
2026-04-22 15:29 10.77328 123.02774 1689 ft 76 kts 187°
2026-04-22 15:30 10.76367 123.02429 2060 ft 74 kts 200°
2026-04-22 15:30 10.75916 123.02151 2207 ft 74 kts 210°
2026-04-22 15:30 10.75473 123.01866 2373 ft 77 kts 207°
2026-04-22 15:30 10.75033 123.01572 2552 ft 77 kts 208°
2026-04-22 15:31 10.74583 123.01271 2707 ft 77 kts 208°
2026-04-22 15:31 10.74130 123.00979 2871 ft 76 kts 207°
2026-04-22 15:31 10.73678 123.00692 3023 ft 76 kts 208°
2026-04-22 15:31 10.73229 123.00403 3163 ft 77 kts 208°
2026-04-22 15:32 10.72777 123.00112 3294 ft 77 kts 208°
2026-04-22 15:32 10.72319 122.99819 3410 ft 82 kts 208°
2026-04-22 15:32 10.71782 122.99481 3431 ft 99 kts 209°
2026-04-22 15:32 10.71151 122.99083 3429 ft 112 kts 212°
2026-04-22 15:33 10.70463 122.98647 3425 ft 121 kts 208°
2026-04-22 15:33 10.69722 122.98215 3421 ft 125 kts 207°
2026-04-22 15:33 10.69048 122.97669 3421 ft 127 kts 234°
2026-04-22 15:33 10.68696 122.96842 3413 ft 129 kts 259°
2026-04-22 15:34 10.68702 122.95938 3414 ft 129 kts 291°
2026-04-22 15:34 10.68917 122.95061 3402 ft 132 kts 261°
2026-04-22 15:34 10.68397 122.94349 3394 ft 129 kts 203°
2026-04-22 15:34 10.67526 122.94254 3410 ft 126 kts 178°
2026-04-22 15:35 10.66646 122.94240 3408 ft 126 kts 179°
2026-04-22 15:35 10.65768 122.94231 3408 ft 127 kts 179°
2026-04-22 15:35 10.64886 122.94220 3410 ft 126 kts 179°
2026-04-22 15:35 10.64010 122.94215 3415 ft 125 kts 176°
2026-04-22 15:36 10.63294 122.94599 3401 ft 118 kts 119°
2026-04-22 15:36 10.62724 122.95198 3408 ft 121 kts 147°
2026-04-22 15:36 10.61963 122.95578 3413 ft 123 kts 155°
2026-04-22 15:36 10.61162 122.95884 3414 ft 124 kts 167°
2026-04-22 15:37 10.60370 122.95612 3419 ft 128 kts 228°
2026-04-22 15:37 10.59927 122.94822 3419 ft 129 kts 242°
2026-04-22 15:37 10.59555 122.93994 3414 ft 129 kts 260°
2026-04-22 15:37 10.59833 122.93169 3418 ft 128 kts 320°
2026-04-22 15:38 10.60563 122.92658 3419 ft 127 kts 329°
2026-04-22 15:38 10.62127 122.92172 3420 ft 121 kts 33°
2026-04-22 15:38 10.62681 122.92796 3420 ft 120 kts 51°
2026-04-22 15:39 10.63300 122.93360 3411 ft 121 kts 33°
2026-04-22 15:39 10.64061 122.93746 3333 ft 126 kts 32°
2026-04-22 15:39 10.64813 122.94150 3397 ft 120 kts 28°
2026-04-22 15:39 10.65566 122.94521 3407 ft 121 kts 29°
2026-04-22 15:40 10.66319 122.94901 3383 ft 117 kts 30°
2026-04-22 15:40 10.67081 122.95301 3260 ft 128 kts 33°
2026-04-22 15:40 10.67832 122.95778 3245 ft 125 kts 36°
2026-04-22 15:40 10.68565 122.96307 3061 ft 134 kts 40°
2026-04-22 15:41 10.69304 122.96904 2683 ft 129 kts 41°
2026-04-22 15:41 10.69987 122.97426 2272 ft 121 kts 35°
2026-04-22 15:41 10.70720 122.97835 1779 ft 118 kts 30°
2026-04-22 15:41 10.71458 122.98258 1285 ft 115 kts 34°
2026-04-22 15:42 10.72112 122.98645 1126 ft 106 kts 30°
2026-04-22 15:42 10.72732 122.98986 1037 ft 94 kts 32°
2026-04-22 15:42 10.73227 122.99294 1004 ft 73 kts 32°
2026-04-22 15:42 10.73662 122.99558 880 ft 71 kts 31°
2026-04-22 15:43 10.74100 122.99812 789 ft 77 kts 29°
2026-04-22 15:43 10.74603 123.00080 646 ft 90 kts 32°
2026-04-22 15:43 10.75118 123.00410 566 ft 88 kts 31°
2026-04-22 15:43 10.75659 123.00734 421 ft 91 kts 32°
2026-04-22 15:44 10.76205 123.01048 300 ft 88 kts 33°
2026-04-22 15:44 10.76705 123.01355 171 ft 82 kts 32°
2026-04-22 15:44 10.77157 123.01620 92 ft 61 kts 31°
2026-04-22 15:44 10.77446 123.01791 80 ft 40 kts 34°
2026-04-22 15:45 10.77638 123.01860 82 ft 18 kts 26°